Location: Medlow Airstrip Trail, Medlow Bath NSW 2780, Australia
(33.6682°S, 150.3233°E)
Time: 00:29:25
(UTC+11:00)

Explorer 11/Cluster Stage 4 - Pass Details

Date: 23 September 2019
Orbit: 467 x 1259 km, 28.8° (Epoch: 18 October)

Event Time Altitude Azimuth Distance (km) Brightness Sun altitude
Rises 09:22:33 0° 297° (WNW) 2,978 9.4 41.4°
Reaches altitude 10° 09:24:48 10° 304° (WNW) 2,178 8.8 41.8°
Maximum altitude 09:29:42 43° 15° (NNE) 1,142 8.8 42.6°
Drops below altitude 10° 09:35:49 10° 84° (E) 2,718 10.1 43.6°
Sets 09:38:55 0° 89° (E) 3,803 10.6 44.1°
